Wind_Speed
29 30 32 35 37 39 40 42 45 43 41 37 36 34 35 36 39 42 43 44 45 45 45 45 44 44 45 44 43 42 41 40 39 38 37 36 34 34 34 33 32 32 32 32
30 32 34 35 36 37 40 40 43 43 41 38 37 36 34 34 36 39 42 44 44 45 45 44 43 42 41 41 41 40 40 39 37 36 35 35 34 34 33 32 31 31 31 31
30 33 35 36 35 35 37 39 42 42 38 38 37 37 35 34 36 38 40 43 43 43 43 42 41 40 39 39 39 39 38 37 36 35 35 34 33 32 32 31 30 30 31 31
29 31 35 33 33 34 36 37 39 41 38 39 38 37 36 35 35 38 40 42 42 42 42 42 41 40 40 39 38 37 36 35 34 34 33 32 31 31 30 30 29 29 30 30
29 30 31 32 33 34 36 38 38 40 40 41 40 38 36 36 37 38 39 41 42 42 42 42 41 41 40 39 38 37 35 34 33 32 31 31 30 30 29 29 29 29 29 30
29 30 30 28 30 32 35 37 39 41 41 42 43 41 37 37 38 39 40 41 42 42 41 41 40 39 38 38 37 36 34 33 32 32 31 30 30 29 29 28 28 28 29 29
28 31 30 28 28 31 34 35 38 40 41 41 43 43 40 39 39 39 40 43 42 42 41 40 39 38 38 37 36 35 34 32 32 31 31 30 29 28 28 27 27 28 29 29
28 30 29 28 29 31 32 33 37 39 41 42 44 43 42 41 40 40 41 43 43 42 41 40 39 38 37 37 36 35 33 32 31 31 30 29 28 27 27 27 27 28 28 29
28 28 27 29 31 32 34 34 36 38 39 41 42 44 44 44 43 42 41 42 42 41 40 40 39 38 37 37 36 34 33 32 31 30 29 28 27 27 26 26 27 28 28 29
31 30 29 28 30 32 35 37 37 38 38 40 41 43 45 45 44 43 42 42 42 41 40 39 39 38 37 36 34 34 32 31 30 29 29 28 27 26 26 27 27 27 28 29
31 30 31 30 31 33 35 38 39 39 39 39 40 41 44 45 44 43 42 42 42 41 40 39 38 37 36 35 34 34 32 31 30 29 28 27 27 27 27 27 26 27 28 29
32 31 32 31 32 34 35 37 39 40 40 40 40 41 43 44 44 44 43 43 43 42 41 39 39 38 36 35 34 33 32 30 29 28 28 27 27 27 26 26 27 27 28 29
32 32 33 32 32 33 35 37 39 40 41 41 42 42 42 43 44 44 44 44 43 42 41 40 38 37 37 36 35 34 32 31 30 29 28 27 27 27 27 27 27 28 29 29
30 32 33 32 32 34 34 36 38 40 40 42 43 43 44 43 44 44 43 43 43 42 41 40 38 37 37 36 35 34 33 31 30 29 28 28 28 27 27 27 28 28 29 29
28 30 31 31 31 33 35 35 37 39 40 41 43 44 44 44 44 44 44 43 43 42 42 40 39 38 37 36 35 33 32 31 30 29 28 28 28 27 27 27 28 28 29 29
27 28 29 29 29 31 32 33 35 37 39 41 43 45 45 45 45 44 44 44 42 41 41 40 39 38 37 36 35 34 32 31 30 29 29 28 28 27 27 28 28 28 29 29
27 26 27 28 28 29 30 31 33 34 37 40 42 44 45 45 45 44 43 43 43 42 41 40 39 38 38 37 35 34 32 31 30 30 29 29 28 28 28 28 28 28 28 28
27 27 27 28 28 28 27 29 31 32 34 37 40 43 45 44 44 44 44 42 42 41 40 38 38 37 37 37 35 34 33 31 31 30 29 29 28 28 28 28 28 27 27 27
27 28 28 28 29 29 29 28 30 31 33 36 39 43 44 43 42 42 43 41 40 39 39 37 36 36 36 35 34 33 32 32 31 30 29 29 28 27 27 27 26 26 26 27
27 28 28 29 29 30 29 29 30 32 33 35 38 42 43 42 41 41 42 41 40 39 38 37 36 36 35 34 33 32 32 31 30 30 29 28 27 26 25 25 25 25 26 27
28 28 28 29 29 29 28 29 30 32 33 35 38 41 42 42 41 41 41 41 40 39 39 38 37 36 35 35 33 32 32 31 30 29 27 26 25 24 24 24 25 25 25 26
27 28 29 29 29 29 29 29 29 30 32 34 37 39 40 41 40 40 40 40 39 39 38 37 36 35 35 34 32 31 31 30 29 27 26 25 24 24 24 24 24 25 25 26
26 27 28 29 30 30 30 30 29 29 31 34 37 39 40 41 40 39 38 38 38 38 37 37 36 35 33 32 31 30 30 29 27 26 26 25 24 24 24 24 24 25 26 26
25 25 26 27 28 30 31 30 30 30 31 34 37 39 40 40 39 37 38 39 39 38 38 37 36 34 33 31 30 29 28 27 27 26 25 24 24 24 24 24 25 26 26 27
25 25 25 26 27 28 30 30 30 31 32 34 35 37 38 38 37 37 37 37 37 38 37 36 35 33 32 31 29 27 27 26 26 25 24 24 24 24 24 25 25 26 27 28
24 25 25 24 25 27 28 29 30 31 32 34 35 36 37 37 37 36 36 36 37 36 35 34 32 31 30 29 28 27 26 26 25 25 24 24 24 25 25 25 26 26 27 29
23 24 25 25 24 26 28 30 31 31 32 33 35 35 36 36 37 37 37 36 36 35 34 32 31 31 30 29 28 27 26 26 25 25 25 25 25 25 26 26 26 27 28 29
Wind_Direction
235 230 231 227 224 225 227 228 230 229 230 226 227 226 226 226 224 223 223 223 224 226 229 231 232 234 236 237 237 239 241 243 245 248 251 254 257 260 263 267 270 274 277 279
239 232 231 230 228 228 227 227 228 228 227 226 227 225 224 224 220 219 220 220 221 223 225 228 230 232 233 235 237 238 240 242 244 247 250 253 256 259 263 266 270 273 276 279
242 237 233 231 230 230 229 227 228 227 226 225 227 224 221 219 217 216 218 219 220 220 221 223 225 228 230 233 236 239 240 242 244 246 248 252 255 258 262 266 269 272 275 279
246 240 240 232 231 232 231 229 227 227 226 226 227 226 223 219 216 216 216 218 219 219 219 221 223 226 229 231 233 236 239 241 243 245 248 251 254 258 261 265 269 272 276 280
246 243 240 235 233 232 232 231 228 227 225 225 224 225 223 220 217 216 215 215 216 217 218 221 223 226 229 231 232 234 237 239 241 244 247 250 253 257 261 265 268 272 276 280
245 242 239 235 233 232 232 231 230 229 225 225 225 224 223 222 221 218 216 214 214 215 217 220 223 226 228 230 231 233 235 238 241 244 247 250 253 257 261 264 268 272 277 280
244 242 239 233 229 230 231 229 230 230 227 226 226 225 224 224 222 221 220 217 216 217 217 219 223 226 228 230 231 233 235 238 241 244 247 250 253 257 260 264 268 272 277 280
246 244 240 232 231 230 228 226 228 227 227 227 226 224 223 222 222 222 221 220 220 221 220 221 223 225 228 230 232 234 236 238 241 245 248 252 253 256 260 264 268 273 277 281
247 244 240 236 234 231 227 224 223 222 224 225 225 223 221 220 220 221 221 221 221 221 222 223 223 224 227 230 234 236 238 239 242 245 249 252 254 258 261 265 270 274 279 282
246 241 237 234 232 231 228 226 223 221 221 223 223 222 220 218 219 219 220 220 220 220 222 223 223 224 227 230 232 235 237 239 241 245 248 251 254 259 263 267 271 276 279 283
247 241 237 234 232 228 226 225 223 221 221 220 220 221 220 219 219 218 218 219 220 219 220 222 224 225 227 228 231 233 236 239 241 244 246 250 254 258 262 267 272 276 280 285
246 241 238 235 233 230 227 225 223 221 219 218 218 219 219 218 217 217 218 219 219 219 219 221 223 225 227 228 231 233 236 238 240 243 246 250 254 258 263 268 272 276 281 286
247 241 239 236 235 232 228 226 224 221 219 218 217 215 216 217 216 217 217 218 218 219 220 221 222 223 225 228 230 233 235 237 239 242 245 249 253 258 263 268 272 278 283 287
246 241 237 235 235 231 228 227 226 223 221 219 216 215 214 213 214 214 215 217 218 218 218 219 221 223 225 226 229 231 234 235 237 240 244 249 253 258 263 269 274 279 283 287
246 242 239 237 234 230 229 228 226 224 222 220 217 215 213 212 213 213 214 215 216 217 217 218 220 222 223 224 226 230 233 234 236 240 244 248 253 258 263 269 274 279 283 287
244 243 240 236 234 230 229 228 227 224 221 218 217 216 214 212 211 212 212 213 215 216 218 218 219 221 223 224 226 229 230 232 235 239 244 249 254 259 264 269 274 279 283 287
245 243 239 235 232 229 228 227 226 224 219 216 214 213 213 212 211 211 211 213 214 216 217 217 218 220 222 223 225 227 229 232 236 240 244 249 255 259 264 270 275 279 283 287
244 243 239 234 230 229 227 226 224 222 220 217 213 211 209 210 211 211 211 212 214 215 217 218 219 220 221 221 223 226 229 232 236 240 245 251 255 260 265 269 274 278 283 288
242 242 240 235 230 228 228 226 222 219 218 215 213 210 207 207 209 211 211 211 212 214 215 216 218 219 220 220 223 227 231 234 237 240 245 250 254 259 264 268 273 278 284 289
246 244 239 234 231 228 227 225 222 219 217 213 211 208 207 208 209 209 209 209 210 212 214 216 218 219 220 222 224 228 231 234 236 240 244 248 252 258 264 268 274 280 285 288
250 244 239 235 232 229 227 226 223 219 214 212 210 208 207 207 207 207 209 210 211 212 214 216 218 220 222 223 226 229 232 234 236 239 241 246 252 258 264 270 276 280 284 288
250 244 239 237 233 228 227 226 223 220 215 211 210 209 207 205 205 206 208 209 211 212 214 216 217 218 221 223 226 228 231 232 234 236 240 247 253 259 266 271 276 280 284 288
247 243 239 236 232 227 224 224 223 219 214 211 209 207 206 204 204 205 207 208 210 211 213 214 215 218 219 221 223 226 228 230 232 236 243 248 254 261 267 271 275 280 284 288
243 239 235 231 229 225 222 221 219 215 211 209 207 204 203 202 202 204 206 208 209 210 211 213 214 215 217 218 220 223 226 230 234 239 244 250 256 262 267 271 276 280 284 290
237 233 230 226 223 220 216 213 211 208 207 204 202 200 201 201 202 204 205 206 208 209 210 211 212 214 216 217 220 223 227 231 236 241 246 253 259 263 267 271 276 280 286 291
231 227 222 218 216 213 210 206 204 202 201 200 200 199 200 201 202 202 202 203 205 207 207 209 210 212 215 218 221 224 228 233 238 243 249 254 259 263 268 273 277 282 288 292
225 219 214 210 209 207 204 200 198 197 198 199 199 200 200 201 202 202 202 203 203 203 205 207 210 213 217 219 223 228 233 237 241 246 250 255 260 264 270 274 279 284 289 292
Height
5502 5506 5510 5514 5520 5525 5531 5537 5544 5553 5559 5566 5572 5578 5585 5591 5598 5605 5613 5620 5628 5635 5642 5649 5656 5662 5668 5674 5679 5684 5688 5692 5696 5699 5702 5705 5707 5708 5709 5710 5710 5710 5710 5709
5496 5499 5502 5506 5512 5518 5524 5531 5537 5544 5551 5559 5564 5570 5576 5583 5590 5597 5605 5612 5619 5626 5633 5640 5647 5653 5659 5664 5670 5674 5679 5684 5687 5690 5693 5696 5698 5700 5701 5702 5702 5702 5702 5702
5488 5491 5493 5500 5507 5512 5518 5524 5530 5536 5545 5551 5555 5561 5568 5574 5581 5588 5596 5603 5611 5618 5625 5632 5638 5644 5650 5656 5661 5666 5671 5675 5678 5682 5685 5687 5690 5691 5693 5694 5694 5695 5694 5694
5481 5484 5487 5498 5502 5505 5510 5516 5522 5529 5536 5542 5548 5553 5560 5567 5574 5580 5588 5595 5602 5610 5617 5623 5630 5636 5642 5647 5653 5658 5662 5666 5670 5673 5676 5679 5681 5683 5685 5686 5686 5687 5687 5686
5475 5476 5480 5489 5494 5498 5502 5508 5515 5521 5527 5533 5539 5545 5553 5560 5567 5573 5580 5587 5594 5601 5608 5615 5622 5628 5634 5639 5644 5649 5654 5658 5662 5665 5668 5671 5673 5675 5677 5678 5679 5679 5679 5678
5469 5470 5475 5483 5487 5490 5495 5500 5507 5512 5518 5525 5531 5538 5547 5553 5559 5566 5572 5579 5586 5593 5600 5607 5614 5620 5626 5631 5637 5641 5646 5650 5654 5657 5660 5663 5666 5667 5669 5670 5671 5671 5671 5670
5461 5463 5467 5476 5480 5482 5489 5495 5498 5503 5509 5516 5522 5531 5539 5545 5551 5558 5564 5572 5579 5586 5593 5600 5606 5612 5618 5623 5629 5633 5638 5642 5646 5649 5652 5655 5658 5659 5661 5662 5663 5663 5663 5663
5454 5456 5464 5469 5472 5476 5480 5484 5489 5494 5500 5507 5514 5522 5529 5536 5543 5550 5557 5564 5571 5578 5585 5592 5598 5605 5611 5616 5621 5625 5630 5634 5638 5641 5645 5647 5650 5651 5653 5654 5655 5656 5655 5655
5448 5453 5456 5459 5462 5466 5470 5475 5479 5485 5492 5498 5505 5513 5520 5527 5535 5542 5549 5556 5563 5570 5577 5584 5590 5597 5603 5608 5613 5618 5622 5626 5630 5634 5637 5640 5642 5644 5646 5647 5648 5648 5648 5647
5439 5443 5447 5450 5453 5457 5461 5466 5471 5476 5483 5489 5496 5503 5510 5518 5526 5533 5540 5548 5555 5562 5570 5576 5583 5589 5595 5600 5606 5610 5615 5619 5623 5626 5629 5632 5635 5637 5638 5639 5640 5640 5640 5639
5430 5435 5437 5441 5444 5448 5452 5457 5462 5468 5474 5480 5487 5494 5501 5509 5517 5525 5532 5540 5547 5554 5562 5569 5575 5581 5587 5593 5598 5603 5607 5611 5615 5619 5622 5625 5627 5629 5631 5632 5633 5633 5632 5631
5422 5426 5428 5431 5435 5438 5442 5448 5453 5460 5466 5472 5479 5486 5492 5500 5508 5516 5524 5532 5539 5546 5553 5560 5567 5573 5579 5585 5590 5595 5599 5604 5608 5612 5615 5617 5620 5622 5623 5624 5625 5625 5624 5623
5413 5416 5418 5422 5425 5429 5433 5439 5444 5451 5457 5464 5470 5477 5484 5492 5500 5508 5516 5523 5531 5538 5545 5552 5559 5565 5571 5577 5582 5587 5592 5596 5601 5604 5607 5610 5612 5614 5615 5616 5617 5617 5616 5615
5403 5406 5409 5413 5417 5420 5425 5430 5435 5442 5448 5455 5462 5469 5476 5484 5492 5499 5508 5515 5523 5530 5538 5545 5551 5558 5563 5569 5575 5580 5584 5589 5593 5596 5600 5602 5605 5607 5608 5609 5609 5609 5608 5607
5395 5397 5401 5405 5409 5413 5417 5422 5427 5433 5440 5446 5453 5460 5468 5476 5484 5491 5499 5507 5515 5522 5529 5537 5544 5550 5555 5561 5567 5572 5577 5581 5585 5589 5592 5595 5597 5599 5600 5601 5602 5601 5601 5599
5388 5390 5393 5397 5401 5405 5409 5414 5419 5425 5431 5437 5444 5452 5460 5467 5475 5483 5491 5499 5507 5514 5521 5529 5536 5542 5548 5554 5559 5564 5569 5574 5578 5581 5585 5587 5590 5591 5593 5594 5594 5593 5593 5591
5382 5384 5387 5391 5394 5398 5402 5406 5411 5417 5422 5429 5436 5443 5451 5459 5468 5476 5484 5491 5499 5507 5514 5521 5528 5534 5540 5546 5552 5557 5561 5566 5570 5574 5577 5580 5582 5584 5585 5586 5586 5586 5585 5584
5376 5378 5380 5384 5387 5392 5396 5400 5404 5409 5415 5421 5428 5435 5444 5452 5460 5468 5476 5484 5492 5499 5506 5513 5520 5526 5532 5538 5544 5549 5554 5559 5563 5566 5569 5572 5574 5576 5577 5578 5578 5578 5577 5576
5369 5371 5374 5376 5380 5385 5389 5393 5397 5402 5408 5413 5420 5428 5436 5444 5452 5460 5468 5477 5485 5492 5499 5506 5512 5519 5525 5531 5537 5542 5547 5551 5555 5558 5562 5564 5566 5568 5569 5570 5570 5570 5569 5568
5362 5364 5366 5369 5373 5377 5381 5386 5390 5395 5401 5407 5413 5421 5429 5437 5445 5453 5462 5470 5478 5485 5492 5499 5505 5512 5518 5524 5530 5535 5539 5544 5548 5551 5554 5557 5559 5561 5562 5562 5562 5562 5561 5560
5355 5357 5359 5362 5366 5370 5374 5378 5383 5388 5394 5400 5407 5415 5423 5431 5439 5447 5455 5463 5471 5478 5485 5492 5499 5505 5511 5517 5523 5528 5532 5536 5540 5543 5547 5549 5551 5553 5554 5555 5555 5555 5554 5553
5347 5349 5352 5355 5359 5362 5366 5371 5376 5381 5387 5394 5401 5408 5416 5425 5433 5441 5449 5457 5464 5472 5479 5485 5492 5498 5504 5510 5515 5520 5525 5529 5533 5536 5539 5542 5544 5545 5546 5547 5547 5547 5546 5545
5339 5341 5344 5347 5351 5355 5359 5364 5369 5374 5381 5388 5395 5402 5410 5419 5427 5435 5443 5451 5458 5466 5472 5479 5486 5492 5498 5503 5509 5513 5518 5522 5526 5529 5532 5534 5536 5538 5539 5539 5539 5539 5538 5537
5331 5333 5336 5340 5343 5348 5353 5358 5363 5369 5375 5382 5389 5397 5405 5414 5422 5430 5437 5445 5452 5460 5467 5473 5479 5485 5491 5497 5502 5507 5511 5515 5519 5522 5525 5527 5529 5530 5531 5532 5531 5531 5530 5529
5323 5326 5329 5333 5337 5342 5347 5352 5358 5364 5371 5378 5385 5393 5401 5409 5417 5425 5432 5439 5447 5454 5460 5467 5473 5480 5485 5491 5496 5500 5505 5508 5512 5515 5518 5520 5521 5523 5523 5524 5523 5523 5522 5520
5317 5320 5323 5327 5332 5336 5342 5348 5354 5361 5367 5374 5382 5389 5397 5405 5412 5420 5427 5434 5441 5448 5455 5462 5468 5474 5480 5485 5490 5494 5498 5501 5505 5508 5510 5512 5514 5515 5515 5516 5515 5515 5514 5512
5311 5315 5319 5323 5328 5333 5338 5344 5351 5357 5364 5371 5378 5386 5393 5400 5407 5415 5422 5429 5436 5443 5450 5457 5463 5469 5474 5479 5483 5487 5491 5495 5498 5500 5503 5504 5506 5507 5507 5508 5507 5506 5505 5503